QB50P2

Last updated on Sun Dec 14 2025 00:03:49 GMT+0000 (Coordinated Universal Time)

1 40032U 14033Y 25347.20984403 .00013165 00000+0 77281-3 0 9994 2 40032 98.0641 328.0956 0009996 88.2842 271.9532 15.11830614624536
UTC large
Height (km)
Speed (km/s)
/
Latitude / Longitude
Inclination (degrees)
Orbital Period (minutes)
Azimuth
Elevation
Range (km)
Doppler Factor

Next 0 passes for location: London (51.5072 / 0.1276)

Sorry there are no passes over London.